DW5247 Lemo FI current weather conditions

sailwx.info

Wind from 135 at 2 knots gusting 5

Air temperature 3.3° C
Dewpoint 1.4° C

Last reported at 2018-Apr-21 11:07 UTC.
Time now 2018-Apr-21 11:30 UTC

Location: N 62°41' E 029°49'.
View on Google Maps.

See reports from other nearby stations

  
Tides and Currents Weather Stations Pressure Air Temp Water Temp Dewpoint Dewpoint Depression Visibility Wind Speed Wind Dir Waves Ship Positions
date/time (UTC)wind fromknots sea level pressurealtimeterstation pressurevisibilityair tempwater tempwave heightnotes
2018-Apr-21 11:07 135 2 gusting 5 3.3
2018-Apr-21 11:02 158 1 gusting 5 3.3
2018-Apr-21 10:57 158 1 gusting 3 3.3
2018-Apr-21 10:52 113 0 gusting 4 3.3
2018-Apr-21 10:47 135 1 gusting 4 3.3
2018-Apr-21 10:42 158 1 gusting 4 3.3
2018-Apr-21 10:37 135 2 gusting 5 3.3
2018-Apr-21 10:32 180 2 gusting 5 3.3
2018-Apr-21 10:27 135 2 gusting 6 3.3
2018-Apr-21 10:22 180 2 gusting 6 3.3
2018-Apr-21 10:17 180 3 gusting 6 3.3
2018-Apr-21 10:12 180 2 gusting 7 3.3
2018-Apr-21 10:07 135 3 gusting 7 3.3
2018-Apr-21 10:02 180 4 gusting 7 3.3
2018-Apr-21 09:57 135 4 gusting 8 3.3
2018-Apr-21 09:52 203 4 gusting 8 3.3
2018-Apr-21 09:47 135 4 gusting 8 3.3
2018-Apr-21 09:42 135 4 gusting 5 3.3
2018-Apr-21 09:37 135 3 gusting 7 3.3
2018-Apr-21 09:32 180 3 gusting 7 3.3
2018-Apr-21 09:27 180 4 gusting 6 3.3
2018-Apr-21 09:22 135 4 gusting 6 3.3
2018-Apr-21 09:17 135 3 gusting 6 3.9
2018-Apr-21 09:12 113 3 gusting 6 3.3
2018-Apr-21 09:07 180 3 gusting 6 3.9
2018-Apr-21 09:02 180 3 gusting 5 3.9
2018-Apr-21 08:57 158 2 gusting 5 3.9
2018-Apr-21 08:52 135 2 gusting 5 3.3
2018-Apr-21 08:47 203 2 gusting 5 3.3
2018-Apr-21 08:42 135 1 gusting 6 3.3
2018-Apr-21 08:37 135 2 gusting 7 3.3
2018-Apr-21 08:32 180 3 gusting 7 3.3
2018-Apr-21 08:27 158 3 gusting 7 3.3
2018-Apr-21 08:22 158 3 gusting 7 3.3
2018-Apr-21 08:17 180 2 gusting 9 3.3
2018-Apr-21 08:12 113 2 gusting 9 3.3
2018-Apr-21 08:07 113 3 gusting 9 3.3
2018-Apr-21 08:02 180 3 gusting 4 3.3
2018-Apr-21 07:57 180 1 gusting 4 3.3
2018-Apr-21 07:52 113 1 gusting 5 3.3
2018-Apr-21 07:47 113 2 gusting 6 3.3
2018-Apr-21 07:42 113 2 gusting 6 2.8
2018-Apr-21 07:37 135 3 gusting 6 2.8
2018-Apr-21 07:32 135 2 gusting 4 2.8
2018-Apr-21 07:27 068 2 gusting 4 2.8
2018-Apr-21 07:22 068 2 gusting 6 2.8
2018-Apr-21 07:17 135 2 gusting 6 2.8
2018-Apr-21 07:12 158 2 gusting 5 2.8
2018-Apr-21 07:07 113 2 gusting 5 2.8
2018-Apr-21 07:02 090 2 gusting 2 2.8
2018-Apr-21 06:57 113 1 gusting 2 2.8
2018-Apr-21 06:52 113 1 gusting 2 2.8
2018-Apr-21 06:47 158 1 gusting 3 2.8
2018-Apr-21 06:42 135 1 gusting 3 2.8
2018-Apr-21 06:37 135 1 gusting 3 2.8
2018-Apr-21 06:32 135 1 gusting 3 2.8
2018-Apr-21 06:27 113 2 gusting 3 2.8
2018-Apr-21 06:22 158 2 gusting 6 2.8
2018-Apr-21 06:17 135 1 gusting 6 2.8
2018-Apr-21 06:12 090 1 gusting 6 2.8
2018-Apr-21 06:07 270 1 gusting 4 2.2
2018-Apr-21 06:02 158 1 gusting 3 2.2
2018-Apr-21 05:57 045 1 gusting 3 2.2
2018-Apr-21 05:52 045 1 gusting 3 2.2
2018-Apr-21 05:47 045 1 gusting 3 2.2
2018-Apr-21 05:42 135 1 gusting 3 2.2
2018-Apr-21 05:37 113 2 gusting 3 2.2
2018-Apr-21 05:32 135 1 gusting 3 2.2
2018-Apr-21 05:27 068 1 gusting 3 2.2
2018-Apr-21 05:22 113 1 gusting 4 2.2
2018-Apr-21 05:17 113 1 gusting 4 2.2
2018-Apr-21 05:12 113 2 gusting 4 2.2
2018-Apr-21 05:07 090 2 gusting 3 2.2
2018-Apr-21 05:02 113 1 gusting 4 2.2
2018-Apr-21 04:57 113 1 gusting 4 2.2
2018-Apr-21 04:52 113 1 gusting 4 2.2
2018-Apr-21 04:47 135 1 gusting 3 2.2
2018-Apr-21 04:42 113 0 gusting 3 2.2
2018-Apr-21 04:37 135 0 gusting 4 2.2
2018-Apr-21 04:32 113 0 gusting 4 2.2
2018-Apr-21 04:27 045 0 gusting 4 2.2
2018-Apr-21 04:22 135 0 gusting 3 2.2
2018-Apr-21 04:17 113 1 gusting 3 2.2
2018-Apr-21 04:12 158 0 gusting 3 2.2
2018-Apr-21 04:07 135 0 gusting 2 2.2
2018-Apr-21 04:02 135 0 gusting 2 2.2
2018-Apr-21 03:57 113 0 gusting 2 2.2
2018-Apr-21 03:52 113 2.2
2018-Apr-21 03:47 158 2.2
2018-Apr-21 03:42 158 2.2
2018-Apr-21 03:37 135 2.2
2018-Apr-21 03:32 135 2.2
2018-Apr-21 03:27 135 2.2
2018-Apr-21 03:22 135 2.2
2018-Apr-21 03:17 135 2.2
2018-Apr-21 03:12 158 1.7
2018-Apr-21 03:07 135 1.7
2018-Apr-21 03:02 135 1.7
2018-Apr-21 02:57 135 2.2
2018-Apr-21 02:52 113 1.7
2018-Apr-21 02:47 113 2.2
2018-Apr-21 02:42 113 1.7
2018-Apr-21 02:37 135 1.7
2018-Apr-21 02:32 113 1.7
2018-Apr-21 02:27 135 1.7
2018-Apr-21 02:22 113 2.2
2018-Apr-21 02:17 113 2.2
2018-Apr-21 02:12 113 1.7
2018-Apr-21 02:07 338 1.7
2018-Apr-21 02:02 338 2.2
2018-Apr-21 01:57 068 2.2
2018-Apr-21 01:52 158 2.2
2018-Apr-21 01:47 158 2.2
2018-Apr-21 01:42 158 2.2
2018-Apr-21 01:37 158 2.2
2018-Apr-21 01:32 248 2.2
2018-Apr-21 01:27 248 2.2
2018-Apr-21 01:22 248 2.2
2018-Apr-21 01:17 248 2.2
2018-Apr-21 01:12 248 2.2
2018-Apr-21 01:07 248 2.2
2018-Apr-21 01:02 248 2.2
2018-Apr-21 00:57 248 2.2
2018-Apr-21 00:52 248 2.2
2018-Apr-21 00:47 270 2.2
2018-Apr-21 00:42 180 2.2
2018-Apr-21 00:37 180 2.2
2018-Apr-21 00:32 180 2.2
2018-Apr-21 00:27 180 2.2
2018-Apr-21 00:22 270 2.2
2018-Apr-21 00:17 248 0 2.2
2018-Apr-21 00:12 180 0 2.2
2018-Apr-21 00:07 315 2.2
2018-Apr-21 00:02 315 2.2
2018-Apr-20 23:57 248 2.2
2018-Apr-20 23:52 248 2.2
2018-Apr-20 23:47 248 2.2
2018-Apr-20 23:42 248 2.2
2018-Apr-20 23:37 248 2.2
2018-Apr-20 23:32 248 2.2
2018-Apr-20 23:27 248 2.2
2018-Apr-20 23:22 248 2.2
2018-Apr-20 23:17 248 2.2
2018-Apr-20 23:12 248 2.2
2018-Apr-20 23:07 248 2.2
2018-Apr-20 23:02 248 2.2
2018-Apr-20 22:57 270 2.2
2018-Apr-20 22:52 270 2.2
2018-Apr-20 22:47 270 2.2
2018-Apr-20 22:42 270 2.2
2018-Apr-20 22:37 248 2.2
2018-Apr-20 22:32 248 2.2
2018-Apr-20 22:27 248 2.2
2018-Apr-20 22:22 270 2.2
2018-Apr-20 22:17 270 2.2
2018-Apr-20 22:12 270 2.2
2018-Apr-20 22:07 270 2.8
2018-Apr-20 22:02 270 2.2
2018-Apr-20 21:57 270 2.2
2018-Apr-20 21:52 270 2.8
2018-Apr-20 21:47 270 2.8
2018-Apr-20 21:42 270 2.2
2018-Apr-20 21:37 315 2.2
2018-Apr-20 21:32 315 2.2
2018-Apr-20 21:27 315 2.2
2018-Apr-20 21:22 315 2.8
2018-Apr-20 21:17 315 2.8
2018-Apr-20 21:12 315 2.8
2018-Apr-20 21:07 315 2.8
2018-Apr-20 20:57 315 2.8
2018-Apr-20 20:52 315 2.8
2018-Apr-20 20:47 315 2.8
2018-Apr-20 20:42 315 2.8
2018-Apr-20 20:37 338 2.8
2018-Apr-20 20:32 315 2.8
2018-Apr-20 20:27 248 2.8
2018-Apr-20 20:22 248 2.8
2018-Apr-20 20:17 293 2.8
2018-Apr-20 20:12 225 2.8
2018-Apr-20 20:07 270 2.8
2018-Apr-20 20:02 315 2.8
2018-Apr-20 19:57 338 2.8
2018-Apr-20 19:52 338 2.8
2018-Apr-20 19:47 023 2.8
2018-Apr-20 19:42 023 0 gusting 2 2.8
2018-Apr-20 19:37 2.8
2018-Apr-20 19:32 338 2.8
2018-Apr-20 19:27 045 2.8
2018-Apr-20 19:22 338 2.8
2018-Apr-20 19:17 113 2.8
2018-Apr-20 19:12 023 0 gusting 2 2.8
2018-Apr-20 19:07 338 1 gusting 2 2.8
2018-Apr-20 19:02 023 0 gusting 3 2.8
2018-Apr-20 18:57 338 1 gusting 3 2.8
2018-Apr-20 18:52 023 1 gusting 3 2.8
2018-Apr-20 18:47 338 1 gusting 2 2.8
2018-Apr-20 18:42 113 0 gusting 2 2.8
2018-Apr-20 18:37 315 2.8
2018-Apr-20 18:32 068 2.8
2018-Apr-20 18:27 338 0 gusting 2 2.8
2018-Apr-20 18:22 338 1 gusting 1 2.8
2018-Apr-20 18:17 023 1 gusting 2 2.8
2018-Apr-20 18:12 315 0 gusting 4 2.8
2018-Apr-20 18:07 045 1 gusting 4 2.8
2018-Apr-20 18:02 338 1 gusting 4 2.8
2018-Apr-20 17:57 023 1 gusting 3 3.3
2018-Apr-20 17:52 315 0 gusting 2 3.3
2018-Apr-20 17:47 338 0 gusting 2 3.3
2018-Apr-20 17:42 023 0 gusting 2 2.8
2018-Apr-20 17:37 315 0 gusting 3 3.3
2018-Apr-20 17:32 315 1 gusting 3 3.3
2018-Apr-20 17:27 315 1 gusting 3 3.3
2018-Apr-20 17:22 3.3
2018-Apr-20 17:17 315 0 gusting 3 3.3
2018-Apr-20 17:12 023 0 gusting 3 3.3
2018-Apr-20 17:07 023 1 gusting 3 3.3
2018-Apr-20 17:02 315 1 gusting 3 3.3
2018-Apr-20 16:57 338 1 gusting 4 3.3
2018-Apr-20 16:52 315 0 gusting 4 3.3
2018-Apr-20 16:47 023 0 gusting 5 3.3
2018-Apr-20 16:42 270 1 gusting 5 3.3
2018-Apr-20 16:37 315 2 gusting 5 3.3
2018-Apr-20 16:32 3.3
2018-Apr-20 16:27 293 1 gusting 4 3.3
2018-Apr-20 16:22 023 1 gusting 3 3.3
2018-Apr-20 16:17 023 1 gusting 3 3.3
2018-Apr-20 16:12 3.3
2018-Apr-20 16:07 315 2 gusting 5 3.3
2018-Apr-20 16:02 338 2 gusting 6 3.3
2018-Apr-20 15:57 3.3
2018-Apr-20 15:52 315 3 gusting 6 3.3
2018-Apr-20 15:47 338 3 gusting 6 3.3
2018-Apr-20 15:42 3.9
2018-Apr-20 15:37 023 3 gusting 6 3.9
2018-Apr-20 15:32 023 3 gusting 6 3.9
2018-Apr-20 15:27 023 4 gusting 6 3.9
2018-Apr-20 15:22 338 3 gusting 6 3.9
2018-Apr-20 15:17 338 2 gusting 4 3.9
2018-Apr-20 15:12 338 2 gusting 3 3.9
2018-Apr-20 15:07 338 1 gusting 3 3.9
2018-Apr-20 15:02 315 1 gusting 3 3.9
2018-Apr-20 14:57 315 1 gusting 4 3.9
2018-Apr-20 14:52 315 1 gusting 4 3.9
2018-Apr-20 14:47 3.9
2018-Apr-20 14:42 023 2 gusting 5 3.9
2018-Apr-20 14:37 315 2 gusting 6 3.9
2018-Apr-20 14:32 270 3 gusting 6 3.3
2018-Apr-20 14:27 315 3 gusting 3 3.9
2018-Apr-20 14:22 270 3 gusting 6 3.3
2018-Apr-20 14:17 315 2 gusting 6 3.3
2018-Apr-20 14:12 293 3 gusting 6 3.3
2018-Apr-20 14:07 315 2 gusting 6 3.3
2018-Apr-20 14:02 315 3 gusting 6 3.3
2018-Apr-20 13:57 338 2 gusting 6 3.3
2018-Apr-20 13:52 293 2 gusting 6 3.3
2018-Apr-20 13:47 315 2 gusting 6 3.3
2018-Apr-20 13:42 315 2 gusting 6 3.3
2018-Apr-20 13:37 315 3 gusting 6 3.9
2018-Apr-20 13:32 315 3 gusting 6 3.3
2018-Apr-20 13:27 270 1 gusting 4 3.3
2018-Apr-20 13:22 338 1 gusting 3 3.9
2018-Apr-20 13:17 315 1 gusting 3 3.9
2018-Apr-20 13:12 315 1 gusting 4 3.9
2018-Apr-20 13:07 338 1 gusting 4 3.9
2018-Apr-20 13:02 338 1 gusting 4 3.9
2018-Apr-20 12:57 338 2 gusting 5 3.9
2018-Apr-20 12:52 045 2 gusting 5 3.9
2018-Apr-20 12:47 045 1 gusting 5 3.9
2018-Apr-20 12:42 293 1 gusting 4 3.9
2018-Apr-20 12:37 3.9
2018-Apr-20 12:32 270 2 gusting 3 3.9
2018-Apr-20 12:27 338 1 gusting 3 3.9
2018-Apr-20 12:22 270 1 gusting 7 3.9
2018-Apr-20 12:17 338 2 gusting 7 3.9
2018-Apr-20 12:12 338 2 gusting 7 3.9
2018-Apr-20 12:07 270 1 gusting 3 3.9
2018-Apr-20 12:02 315 1 gusting 3 3.9
2018-Apr-20 11:57 293 1 gusting 4 3.9
2018-Apr-20 11:52 248 1 gusting 4 3.9
2018-Apr-20 11:47 113 1 gusting 2 4.4
2018-Apr-20 11:42 293 1 gusting 2 4.4
2018-Apr-20 11:37 293 1 gusting 3 4.4
2018-Apr-20 11:32 338 1 gusting 3 4.4
2018-Apr-20 11:27 315 0 gusting 2 4.4
2018-Apr-20 11:22 338 0 gusting 1 4.4
2018-Apr-20 11:17 225 0 gusting 1 4.4
2018-Apr-20 11:12 023 0 gusting 2 4.4
2018-Apr-20 11:07 293 0 gusting 2 4.4
2018-Apr-20 11:02 090 0 gusting 2 3.9
2018-Apr-20 10:57 315 0 gusting 2 3.9
2018-Apr-20 10:52 293 0 gusting 2 3.9
2018-Apr-20 10:47 338 0 gusting 2 3.9
2018-Apr-20 10:42 315 0 gusting 2 3.9
2018-Apr-20 10:37 338 1 gusting 2 3.9
2018-Apr-20 10:32 315 1 gusting 2 3.9
2018-Apr-20 10:27 023 1 gusting 2 3.9
2018-Apr-20 10:22 338 0 gusting 2 3.9
2018-Apr-20 10:17 338 0 gusting 2 3.9
2018-Apr-20 10:12 338 1 gusting 4 3.9
2018-Apr-20 10:07 203 1 gusting 4 3.9
2018-Apr-20 10:02 338 2 gusting 4 3.9
2018-Apr-20 09:57 225 2 gusting 4 3.9
2018-Apr-20 09:52 315 2 gusting 5 4.4
2018-Apr-20 09:47 315 2 gusting 5 4.4
2018-Apr-20 09:42 315 2 gusting 6 4.4
2018-Apr-20 09:37 338 2 gusting 6 4.4
2018-Apr-20 09:32 315 3 gusting 6 4.4
2018-Apr-20 09:27 315 4 gusting 6 4.4
2018-Apr-20 09:22 338 4 gusting 6 5.0
2018-Apr-20 09:17 338 3 gusting 6 5.0
2018-Apr-20 09:12 023 3 gusting 6 5.0
2018-Apr-20 09:07 338 3 gusting 6 5.0
2018-Apr-20 09:02 338 3 gusting 6 5.0
2018-Apr-20 08:57 023 2 gusting 5 5.0
2018-Apr-20 08:52 338 2 gusting 5 5.0
2018-Apr-20 08:47 315 2 gusting 7 5.0
2018-Apr-20 08:42 338 3 gusting 7 5.0
2018-Apr-20 08:37 338 3 gusting 7 5.0
2018-Apr-20 08:32 338 4 gusting 6 5.6
2018-Apr-20 08:27 5.6
2018-Apr-20 08:22 315 3 gusting 6 5.6
2018-Apr-20 08:17 338 2 gusting 6 5.6
2018-Apr-20 08:12 023 2 gusting 6 5.6
2018-Apr-20 08:07 090 2 gusting 6 5.0
2018-Apr-20 08:02 315 2 gusting 5 5.6
2018-Apr-20 07:57 315 2 gusting 5 5.0
2018-Apr-20 07:52 315 2 gusting 7 5.0
2018-Apr-20 07:47 315 2 gusting 7 5.0
2018-Apr-20 07:42 315 3 gusting 7 5.0
2018-Apr-20 07:37 338 3 gusting 5 5.0
2018-Apr-20 07:32 315 2 gusting 5 5.0
2018-Apr-20 07:27 338 2 gusting 5 5.0
2018-Apr-20 07:22 315 2 gusting 5 5.0
2018-Apr-20 07:17 023 3 gusting 5 5.0
2018-Apr-20 07:12 293 3 gusting 5 5.0
2018-Apr-20 07:07 338 3 gusting 5 5.0
2018-Apr-20 07:02 270 3 gusting 5 5.0
2018-Apr-20 06:57 5.0
2018-Apr-20 06:52 293 1 gusting 3 5.0
2018-Apr-20 06:47 293 1 gusting 2 5.0
2018-Apr-20 06:42 315 1 gusting 2 5.0
2018-Apr-20 06:37 338 0 gusting 2 5.0
2018-Apr-20 06:32 315 0 gusting 3 5.0
2018-Apr-20 06:27 023 0 gusting 4 5.0
2018-Apr-20 06:22 270 1 gusting 5 5.0
2018-Apr-20 06:17 315 2 gusting 6 4.4
2018-Apr-20 06:12 293 2 gusting 6 4.4
2018-Apr-20 06:07 315 2 gusting 6 4.4
2018-Apr-20 06:02 338 1 gusting 4 4.4
2018-Apr-20 05:57 338 1 gusting 4 4.4
2018-Apr-20 05:52 315 1 gusting 2 4.4
2018-Apr-20 05:47 023 1 gusting 5 4.4
2018-Apr-20 05:42 270 1 gusting 6 4.4
2018-Apr-20 05:37 315 2 gusting 6 4.4
2018-Apr-20 05:32 315 3 gusting 4 4.4
2018-Apr-20 05:27 315 2 gusting 7 3.9
2018-Apr-20 05:22 315 2 gusting 7 3.9
2018-Apr-20 05:17 270 3 gusting 5 3.9
2018-Apr-20 05:12 270 2 gusting 5 3.9
2018-Apr-20 05:07 293 2 gusting 5 3.9
2018-Apr-20 05:02 315 1 gusting 5 3.3
2018-Apr-20 04:57 293 1 gusting 6 3.3
2018-Apr-20 04:52 315 1 gusting 6 3.3
2018-Apr-20 04:47 248 2 gusting 6 3.3
2018-Apr-20 04:42 315 2 gusting 6 2.8
2018-Apr-20 04:37 293 1 gusting 5 2.8
2018-Apr-20 04:32 270 1 gusting 5 2.8
2018-Apr-20 04:27 248 1 gusting 2 2.8
2018-Apr-20 04:22 248 1 gusting 3 2.2
2018-Apr-20 04:17 293 0 gusting 3 2.2
2018-Apr-20 04:12 248 1 gusting 3 2.2
2018-Apr-20 04:07 270 2 gusting 3 2.2
2018-Apr-20 04:02 270 1 gusting 3 1.7
2018-Apr-20 03:57 315 1 gusting 3 1.7
2018-Apr-20 03:52 248 0 gusting 1 1.7
2018-Apr-20 03:47 248 1.7
2018-Apr-20 03:42 270 1.1
2018-Apr-20 03:37 248 1.1
2018-Apr-20 03:32 248 0 gusting 1 1.1
2018-Apr-20 03:27 270 0 gusting 1 1.1
2018-Apr-20 03:22 248 0 gusting 0 1.1
2018-Apr-20 03:17 248 1.1
2018-Apr-20 03:12 248 1.1
2018-Apr-20 03:07 248 1.1
2018-Apr-20 03:02 248 1.1
2018-Apr-20 02:57 248 1.1
2018-Apr-20 02:52 248 1.1
2018-Apr-20 02:47 293 1.1
2018-Apr-20 02:42 270 1.1
2018-Apr-20 02:37 248 1.1
2018-Apr-20 02:32 248 1.1
2018-Apr-20 02:27 270 1.1
2018-Apr-20 02:22 270 1.1
2018-Apr-20 02:12 248 1.7
2018-Apr-20 02:02 248 1.7
2018-Apr-20 01:57 248 1.7
2018-Apr-20 01:52 248 1.7
2018-Apr-20 01:47 248 1.7
2018-Apr-20 01:42 248 1.7
2018-Apr-20 01:37 248 1.7
2018-Apr-20 01:32 270 2.2
2018-Apr-20 01:12 248 2.2
2018-Apr-20 01:07 248 2.2
2018-Apr-20 01:02 270 2.8
2018-Apr-20 00:57 180 2.8
2018-Apr-20 00:47 225 2.8
2018-Apr-20 00:42 203 3.3
2018-Apr-20 00:32 293 3.3
2018-Apr-20 00:27 293 3.3
2018-Apr-20 00:22 248 3.3
2018-Apr-20 00:17 248 3.9
2018-Apr-20 00:12 270 3.9
2018-Apr-20 00:07 270 3.9
2018-Apr-20 00:02 270 3.9
2018-Apr-19 23:57 248 3.9
2018-Apr-19 23:52 248 3.9
2018-Apr-19 23:47 248 4.4
2018-Apr-19 23:42 248 4.4
2018-Apr-19 23:37 248 4.4
2018-Apr-19 23:32 248 4.4
2018-Apr-19 23:27 248 4.4
2018-Apr-19 23:22 248 4.4
2018-Apr-19 23:17 270 5.0
2018-Apr-19 23:12 293 0 gusting 2 5.0
2018-Apr-19 23:07 315 1 gusting 2 5.0
2018-Apr-19 23:02 248 1 gusting 2 5.0
2018-Apr-19 22:57 225 1 gusting 3 5.0
2018-Apr-19 22:52 248 1 gusting 3 5.0
2018-Apr-19 22:47 248 1 gusting 3 5.0
2018-Apr-19 22:42 225 2 gusting 3 5.6
2018-Apr-19 22:37 248 1 gusting 3 5.0
2018-Apr-19 22:32 248 2 gusting 3 5.0
2018-Apr-19 22:27 248 2 gusting 3 5.6
2018-Apr-19 22:22 248 2 gusting 3 5.6
2018-Apr-19 22:17 225 1 gusting 3 5.6
2018-Apr-19 22:12 090 1 gusting 4 5.6
2018-Apr-19 22:07 248 2 gusting 4 5.6
2018-Apr-19 22:02 225 2 gusting 4 5.6
2018-Apr-19 21:57 225 3 gusting 6 5.6
2018-Apr-19 21:52 225 3 gusting 7 5.6
2018-Apr-19 21:47 248 2 gusting 7 5.6
2018-Apr-19 21:42 225 2 gusting 5 5.6
2018-Apr-19 21:37 225 3 gusting 5 5.6
2018-Apr-19 21:32 270 3 gusting 5 5.0
2018-Apr-19 21:27 225 3 gusting 5 5.6
2018-Apr-19 21:22 248 3 gusting 5 5.0
2018-Apr-19 21:17 248 3 gusting 5 5.0
2018-Apr-19 21:12 248 3 gusting 5 5.0
2018-Apr-19 21:07 203 2 gusting 5 5.0
2018-Apr-19 20:57 248 2 gusting 6 4.4
2018-Apr-19 20:52 248 2 gusting 3 4.4
2018-Apr-19 20:47 203 2 gusting 3 3.9
2018-Apr-19 20:42 225 1 gusting 2 3.3
2018-Apr-19 20:37 225 0 gusting 2 3.3
2018-Apr-19 20:32 180 3.3
2018-Apr-19 20:27 180 3.3
2018-Apr-19 20:22 158 3.3
2018-Apr-19 20:17 135 3.3
2018-Apr-19 20:12 135 3.9
2018-Apr-19 20:07 113 3.9
2018-Apr-19 20:02 135 3.9
2018-Apr-19 19:57 113 3.9
2018-Apr-19 19:52 068 3.9
2018-Apr-19 19:47 090 3.9
2018-Apr-19 19:42 158 3.9
2018-Apr-19 19:37 113 3.9
2018-Apr-19 19:32 113 3.9
2018-Apr-19 19:27 135 3.9
2018-Apr-19 19:22 113 3.9
2018-Apr-19 19:17 315 3.9
2018-Apr-19 19:12 135 4.4
2018-Apr-19 19:07 068 4.4
2018-Apr-19 19:02 068 4.4
2018-Apr-19 18:57 068 4.4
2018-Apr-19 18:52 068 4.4
2018-Apr-19 18:47 068 4.4
2018-Apr-19 18:42 090 4.4
2018-Apr-19 18:37 113 4.4
2018-Apr-19 18:32 180 5.0
2018-Apr-19 18:27 113 5.0
2018-Apr-19 18:22 113 5.0
2018-Apr-19 18:17 113 5.0
2018-Apr-19 18:12 068 5.6
2018-Apr-19 18:07 068 5.6
2018-Apr-19 18:02 045 5.6
2018-Apr-19 17:57 068 5.6
2018-Apr-19 17:52 023 6.1
2018-Apr-19 17:47 068 6.1
2018-Apr-19 17:42 045 6.1
2018-Apr-19 17:37 068 6.1
2018-Apr-19 17:32 068 6.7
2018-Apr-19 17:27 068 6.7
2018-Apr-19 17:22 068 6.7
2018-Apr-19 17:17 068 7.2
2018-Apr-19 17:12 090 7.2
2018-Apr-19 17:07 068 7.8
2018-Apr-19 17:02 068 7.8
2018-Apr-19 16:57 068 7.8
2018-Apr-19 16:52 090 8.3
2018-Apr-19 16:47 113 8.3
2018-Apr-19 16:42 135 8.9
2018-Apr-19 16:37 068 8.9
2018-Apr-19 16:32 045 9.4
2018-Apr-19 16:27 090 10.0
2018-Apr-19 16:22 068 10.0
2018-Apr-19 16:17 068 10.6
2018-Apr-19 16:12 068 10.6
2018-Apr-19 16:07 068 11.1
2018-Apr-19 16:02 068 11.7
2018-Apr-19 15:57 068 11.7
2018-Apr-19 15:52 068 12.2
2018-Apr-19 15:47 068 12.8
2018-Apr-19 15:42 068 12.8
2018-Apr-19 15:37 068 13.3
2018-Apr-19 15:32 113 13.3
2018-Apr-19 15:27 113 13.3
2018-Apr-19 15:22 135 0 gusting 2 13.3
2018-Apr-19 15:17 113 0 gusting 3 13.3
2018-Apr-19 15:12 135 13.3
2018-Apr-19 15:07 045 0 gusting 4 13.3
2018-Apr-19 15:02 135 0 gusting 4 13.3
2018-Apr-19 14:57 113 1 gusting 4 13.9
2018-Apr-19 14:52 158 1 gusting 3 13.3
2018-Apr-19 14:47 090 0 gusting 5 13.9
2018-Apr-19 14:42 158 0 gusting 5 13.3
2018-Apr-19 14:37 113 3 gusting 5 13.3
2018-Apr-19 14:32 135 3 gusting 4 13.9
2018-Apr-19 14:27 135 2 gusting 4 13.9
2018-Apr-19 14:22 135 2 gusting 4 13.3
2018-Apr-19 14:17 135 2 gusting 5 13.3
2018-Apr-19 14:12 13.3
2018-Apr-19 14:07 158 1 gusting 5 13.3
2018-Apr-19 14:02 135 1 gusting 5 13.3
2018-Apr-19 13:57 158 2 gusting 5 13.3
2018-Apr-19 13:52 135 2 gusting 5 13.3
2018-Apr-19 13:47 135 3 gusting 5 13.3
2018-Apr-19 13:42 225 3 gusting 6 13.9
2018-Apr-19 13:37 113 3 gusting 6 13.9
2018-Apr-19 13:32 090 3 gusting 5 13.9
2018-Apr-19 13:27 180 2 gusting 5 13.9
2018-Apr-19 13:22 135 2 gusting 5 13.9
2018-Apr-19 13:17 045 2 gusting 6 13.9
2018-Apr-19 13:12 135 1 gusting 7 13.9
2018-Apr-19 13:07 045 2 gusting 7 13.9
2018-Apr-19 13:02 068 3 gusting 7 13.9
2018-Apr-19 12:57 135 4 gusting 7 13.9
2018-Apr-19 12:52 135 3 gusting 6 13.9
2018-Apr-19 12:47 113 2 gusting 4 13.9
2018-Apr-19 12:42 158 1 gusting 2 13.9
2018-Apr-19 12:37 090 0 gusting 5 13.9
2018-Apr-19 12:32 180 1 gusting 6 13.9
2018-Apr-19 12:27 068 4 gusting 6 13.9
2018-Apr-19 12:22 068 4 gusting 6 13.9
2018-Apr-19 12:17 113 2 gusting 7 13.9
2018-Apr-19 12:12 180 2 gusting 7 13.9
2018-Apr-19 12:07 090 3 gusting 6 13.9
2018-Apr-19 12:02 090 3 gusting 5 13.9
2018-Apr-19 11:57 113 2 gusting 5 13.9
2018-Apr-19 11:52 113 2 gusting 5 13.9
2018-Apr-19 11:47 135 2 gusting 5 13.9
2018-Apr-19 11:42 180 1 gusting 3 13.3
2018-Apr-19 11:37 135 1 gusting 4 13.3
2018-Apr-19 11:32 135 2 gusting 4 13.3
2018-Apr-19 11:27 068 3 gusting 5 13.3
2018-Apr-19 11:22 158 4 gusting 5 13.3
2018-Apr-19 11:17 180 3 gusting 5 13.3
2018-Apr-19 11:12 12.8
2018-Apr-19 11:07 158 2 gusting 4 12.8
2018-Apr-19 11:02 113 2 gusting 4 12.8